This demonstration page uses our WeatherBlox Daily Observations layout. Learn more.

Left ArrowRight Arrow

38.20091, -84.87328

Hourly Observations for May 21, 2022

Temp ( °F °C ) Dew Point ( °F °C ) Humidity (%) Winds ( mph kmh ) Pressure ( in mb ) Visibility ( mi km ) Precip ( " mm )
12:53 am 00:53 Clear 73 22.8 63 17.2 71 71 SSW 6 9 29.86 1011 10 16 0.00 0.00
1:53 am 01:53 Clear 69 20.6 63 17.2 81 81 Calm 29.88 1012 10 16 0.00 0.00
2:53 am 02:53 Clear 72 22.2 64 17.8 76 76 S 6 9 29.91 1013 10 16 0.00 0.00
3:53 am 03:53 Mostly Clear 72 22.2 63 17.2 73 73 S 5 7 29.91 1013 10 16 0.00 0.00
4:53 am 04:53 Clear 73 22.8 64 17.8 74 74 S 7 11 29.91 1013 10 16 0.00 0.00
5:53 am 05:53 Clear 72 22.2 64 17.8 76 76 S 7 11 29.93 1014 10 16 0.00 0.00
6:53 am 06:53 Partly Cloudy 72 22.2 64 17.8 76 76 S 8 13 29.96 1014 10 16 0.00 0.00
7:53 am 07:53 Sunny 75 23.9 66 18.9 74 74 SW 12 19 29.97 1015 10 16 0.00 0.00
8:53 am 08:53 Sunny 78 25.6 67 19.4 69 69 SW 12 19 29.99 1016 10 16 0.00 0.00
9:53 am 09:53 Sunny 80 26.7 68 20 67 67 SSW 15 24 29.99 1016 10 16 0.00 0.00
10:53 am 10:53 Sunny 82 27.8 69 20.6 65 65 SSW 16 26 29.99 1016 10 16 0.00 0.00
11:53 am 11:53 Mostly Sunny 84 28.9 70 21.1 63 63 SSW 12 19 29.99 1016 10 16 0.00 0.00
12:53 pm 12:53 Partly Cloudy 86 30 71 21.7 61 61 S 14 22 30.00 1016 10 16 0.00 0.00
1:51 pm 13:51 Partly Cloudy with Nearby Thunderstorms 88 31 72 22 59 59 SSW 17 28 29.97 1015 10 16 0.00 0.00
1:53 pm 13:53 Partly Cloudy with Nearby Thunderstorms 88 31.1 71 21.7 57 57 SSW 16 26 30.00 1016 10 16 0.00 0.00
2:14 pm 14:14 Mostly Cloudy with Thunderstorms 83 28.3 68 20 61 61 WSW 24 39 30.01 1016 10 16 0.00 0.00
2:16 pm 14:16 Mostly Cloudy with Thunderstorms 80 26.7 66 18.9 62 62 W 21 33 30.00 1016 2 3 0.00 0.00
2:20 pm 14:20 Windy with Storms Likely 75 23.9 64 17.8 69 69 WNW 24 39 30.01 1016 1 2 0.06 1.52
2:31 pm 14:31 Mostly Cloudy with Thunderstorms 74 23.3 64 17.8 71 71 SW 14 22 30.01 1016 3 5 0.09 2.29
2:53 pm 14:53 Partly Cloudy with Thunderstorms 74 23.3 64 17.8 71 71 Calm 30.02 1017 10 16 0.12 3.05
3:06 pm 15:06 Partly Cloudy with Nearby Thunderstorms 72 22.2 67 19.4 84 84 Calm 30.02 1017 10 16 0.00 0.00
3:35 pm 15:35 Mostly Cloudy with Light Rain 74 23.3 68 20 82 82 SSW 3 6 29.99 1016 8 13 0.00 0.00
3:53 pm 15:53 Partly Cloudy 77 25 69 20.6 77 77 SW 6 9 29.99 1016 10 16 0.00 0.00
4:53 pm 16:53 Sunny with Nearby Thunderstorms 84 28.9 69 20.6 61 61 SSW 14 22 29.97 1015 10 16 0.00 0.00
5:12 pm 17:12 Sunny 82 27.8 70 21.1 67 67 WSW 8 13 29.96 1015 10 16 0.00 0.00
5:27 pm 17:27 Partly Cloudy with Nearby Thunderstorms 81 27.2 70 21.1 69 69 Calm 29.95 1014 10 16 0.00 0.00
5:45 pm 17:45 Mostly Cloudy 78 25.6 66 18.9 67 67 NW 16 26 30.01 1016 10 16 0.00 0.00
5:53 pm 17:53 Windy with Storms Likely 73 22.8 63 17.2 71 71 NW 23 37 30.04 1017 10 16 0.00 0.00
6:13 pm 18:13 Cloudy with Light Rain 69 20.6 64 17.8 84 84 NNW 5 7 30.04 1017 3 5 0.06 1.52
6:39 pm 18:39 Cloudy with Nearby Thunderstorms 68 20 64 17.8 87 87 Calm 30.03 1017 10 16 0.06 1.52
6:53 pm 18:53 Cloudy with Thunderstorms 68 20 64 17.8 87 87 E 3 6 30.04 1017 2 3 0.13 3.30
7:03 pm 19:03 Mostly Cloudy with Thunderstorms 68 20 65 18.3 90 90 E 5 7 30.03 1017 7 11 0.01 0.25
7:13 pm 19:13 Mostly Cloudy with Light Rain 68 20 65 18.3 90 90 ESE 7 11 30.02 1017 10 16 0.01 0.25
7:27 pm 19:27 Mostly Cloudy with Nearby Thunderstorms 68 20 65 18.3 90 90 SSE 9 15 30.02 1017 10 16 0.01 0.25
7:34 pm 19:34 Mostly Cloudy with Thunderstorms 68 20 64 17.8 87 87 SE 13 20 30.00 1016 8 13 0.02 0.51
7:49 pm 19:49 Cloudy with Light Rain 68 20 64 18 88 88 ESE 8 13 29.98 1015 9 14 0.03 0.76
7:53 pm 19:53 Cloudy with Light Rain 68 20 64 17.8 87 87 ESE 7 11 29.98 1015 10 16 0.03 0.76
8:53 pm 20:53 Clear 69 20.6 65 18.3 87 87 S 7 11 30.00 1016 10 16 0.00 0.00
9:53 pm 21:53 Clear 68 20 65 18.3 90 90 Calm 30.02 1017 9 14 0.00 0.00
10:30 pm 22:30 Mostly Cloudy with Nearby Thunderstorms 68 20 65 18.3 90 90 WSW 7 11 30.04 1017 9 14 0.00 0.00
10:49 pm 22:49 Cloudy with Thunderstorms 70 21 64 18 83 83 WSW 21 33 30.06 1018 2 3 0.00 0.00
10:53 pm 22:53 Cloudy with Strong Thunderstorms 72 22.2 64 17.8 76 76 W 8 13 30.05 1018 1 2 0.19 4.83
11:02 pm 23:02 Mostly Cloudy with Thunderstorms 70 21.1 66 18.9 87 87 SSW 7 11 30.06 1018 3 5 0.03 0.76
11:21 pm 23:21 Mostly Cloudy 69 20.6 66 18.9 90 90 WSW 5 7 30.06 1018 7 11 0.03 0.76
11:53 pm 23:53 Cloudy 69 20.6 66 18.9 90 90 Calm 30.07 1018 7 11 0.03 0.76

Powered by AerisWeather